Weather History for Craig, CO

Change the Weather History Date:

Monday, December 31, 2012

  Actual Average Record
Temperature  
Mean Temperature -1 °F 15 °F  
Max Temperature 13 °F 29 °F 48 °F (2011)
Min Temperature -15 °F 1 °F -17 °F (2010)
Degree Days  
Heating Degree Days 66 50  
Month to date heating degree days 1452 1470  
Since 1 July heating degree days 3171 3556  
Cooling Degree Days 0 0  
Month to date cooling degree days 0 0  
Year to date cooling degree days 344 142  
Moisture  
Dew Point 2 °F    
Average Humidity 77    
Maximum Humidity 83    
Minimum Humidity 70    
Precipitation  
Precipitation 0.03 in 0.03 in 0.34 in (2002)
Month to date precipitation 1.51 1.00  
Year to date precipitation 7.64 16.06  
Sea Level Pressure  
Sea Level Pressure 30.08 in    
Wind  
Wind Speed 2 mph (WSW)    
Max Wind Speed 8 mph    
Max Gust Speed 9 mph    
Visibility 5 miles    
Events Snow    
T = Trace of Precipitation, MM = Missing Value Source: NWS Daily Summary

Daily Weather History Graph

Daily Weather History Graph

Search for Another Location

Airport:

Trip Planner

Search our weather history database for the weather conditions in past years. The results will help you decide how hot, cold, wet, or windy it might be!

Date:

Astronomy

Dec. 31, 2012 Rise Set
Actual Time 7:33 AM MST 4:53 PM MST
Civil Twilight 7:02 AM MST 5:24 PM MST
Nautical Twilight 6:28 AM MST 5:58 PM MST
Astronomical Twilight 5:55 AM MST 6:31 PM MST
Moon 8:27 PM MST (12/31) 9:15 AM MST (12/31)
Length of Visible Light 10h 21m
Length of Day
9h 20m
Waning Gibbous, 90% of the Moon is Illuminated
Dec 31
Waning Gibbous
Jan 4
Last Quarter
Jan 11
New
Jan 18
First Quarter
Jan 26
Full

Hourly Weather History & Observations

Time (MST) Temp. Windchill Dew Point Humidity Pressure Visibility Wind Dir Wind Speed Gust Speed Precip Events Conditions
12:06 AM 8.6 °F - 3.2 °F 79% 29.92 in 1.5 mi Calm Calm - 0.01 in Snow Light Snow
12:18 AM 8.6 °F - 3.2 °F 79% 29.92 in 2.0 mi Calm Calm - 0.01 in Snow Light Snow
12:27 AM 8.6 °F - 3.2 °F 79% 29.91 in 1.8 mi Calm Calm - 0.01 in Snow Light Snow
12:41 AM 8.6 °F - 3.2 °F 79% 29.91 in 2.5 mi Calm Calm - 0.01 in Snow Light Snow
12:48 AM 8.6 °F - 3.2 °F 79% 29.91 in 2.0 mi Calm Calm - 0.01 in Snow Light Snow
12:53 AM 8.1 °F - 3.9 °F 83% 30.18 in 1.8 mi Calm Calm - 0.01 in Snow Light Snow
1:08 AM 8.6 °F - 3.2 °F 79% 29.91 in 2.0 mi Calm Calm - 0.01 in Snow Light Snow
1:30 AM 8.6 °F 2.0 °F 3.2 °F 79% 29.90 in 1.5 mi WNW 3.5 mph - 0.01 in Snow Light Snow
1:46 AM 8.6 °F - 5.0 °F 85% 29.90 in 2.5 mi Calm Calm - 0.01 in Snow Light Snow
1:53 AM 9.0 °F 2.4 °F 5.0 °F 84% 30.16 in 2.5 mi WSW 3.5 mph - 0.01 in Snow Light Snow
2:07 AM 8.6 °F -3.7 °F 5.0 °F 85% 29.90 in 1.5 mi SW 8.1 mph - 0.00 in Snow Light Snow
2:25 AM 8.6 °F 2.0 °F 3.2 °F 79% 29.90 in 3.0 mi West 3.5 mph - 0.00 in Snow Light Snow
2:44 AM 8.6 °F - 5.0 °F 85% 29.90 in 3.0 mi Calm Calm - 0.00 in Snow Light Snow
2:53 AM 10.0 °F -0.9 °F 5.0 °F 80% 30.15 in 4.0 mi WSW 6.9 mph - 0.00 in Snow Light Snow
3:53 AM 10.0 °F 3.6 °F 5.0 °F 80% 30.17 in 4.0 mi West 3.5 mph - 0.00 in Snow Light Snow
4:01 AM 10.4 °F - 6.8 °F 85% 29.89 in 2.5 mi Calm Calm - 0.00 in Snow Light Snow
4:18 AM 10.4 °F - 6.8 °F 85% 29.89 in 2.5 mi Calm Calm - 0.00 in Snow Light Snow
4:29 AM 10.4 °F 4.0 °F 5.0 °F 79% 29.90 in 3.0 mi SW 3.5 mph - 0.00 in Snow Light Snow
4:53 AM 10.0 °F 0.4 °F 6.1 °F 84% 30.19 in 2.5 mi West 5.8 mph - 0.01 in Snow Light Snow
5:06 AM 10.4 °F 2.2 °F 6.8 °F 85% 29.90 in 1.8 mi WSW 4.6 mph - 0.00 in Snow Light Snow
5:31 AM 10.4 °F -0.4 °F 5.0 °F 79% 29.90 in 2.0 mi WSW 6.9 mph - 0.00 in Snow Light Snow
5:39 AM 10.4 °F 0.8 °F 5.0 °F 79% 29.90 in 1.8 mi WSW 5.8 mph - 0.00 in Snow Light Snow
5:53 AM 10.0 °F 0.4 °F 6.1 °F 84% 30.19 in 1.8 mi WSW 5.8 mph - 0.00 in Snow Light Snow
6:02 AM 10.4 °F 2.2 °F 6.8 °F 85% 29.91 in 2.0 mi SW 4.6 mph - 0.00 in Snow Light Snow
6:20 AM 10.4 °F 4.0 °F 6.8 °F 85% 29.91 in 3.0 mi WSW 3.5 mph - 0.00 in Snow Light Snow
6:32 AM 10.4 °F 2.2 °F 6.8 °F 85% 29.91 in 2.5 mi West 4.6 mph - 0.00 in Snow Light Snow
6:50 AM 10.4 °F 2.2 °F 6.8 °F 85% 29.91 in 2.0 mi West 4.6 mph - 0.00 in Snow Light Snow
6:53 AM 10.0 °F 1.8 °F 6.1 °F 84% 30.20 in 2.0 mi West 4.6 mph - 0.00 in Snow Light Snow
7:04 AM 10.4 °F 4.0 °F 6.8 °F 85% 29.92 in 3.0 mi West 3.5 mph - 0.00 in Snow Light Snow
7:35 AM 10.4 °F 4.0 °F 6.8 °F 85% 29.92 in 2.5 mi West 3.5 mph - 0.01 in Snow Light Snow
7:48 AM 10.4 °F - 6.8 °F 85% 29.92 in 1.8 mi Calm Calm - 0.01 in Snow Light Snow
7:53 AM 10.0 °F - 6.1 °F 84% 30.20 in 1.8 mi Calm Calm - 0.01 in Snow Light Snow
8:05 AM 10.4 °F - 6.8 °F 85% 29.92 in 2.5 mi Calm Calm - 0.00 in Snow Light Snow
8:15 AM 10.4 °F - 6.8 °F 85% 29.93 in 3.0 mi Calm Calm - 0.00 in Snow Light Snow
8:53 AM 10.0 °F 3.6 °F 6.1 °F 84% 30.21 in 2.0 mi WNW 3.5 mph - 0.00 in Snow Light Snow
9:00 AM 10.4 °F 4.0 °F 6.8 °F 85% 29.94 in 1.5 mi WNW 3.5 mph - 0.00 in Snow Light Snow
9:12 AM 10.4 °F 4.0 °F 6.8 °F 85% 29.95 in 3.0 mi West 3.5 mph - 0.00 in Snow Light Snow
9:53 AM 9.0 °F 0.6 °F 3.9 °F 80% 30.24 in 9.0 mi West 4.6 mph - 0.00 in   Overcast
10:33 AM 12.2 °F - 3.2 °F 67% 29.98 in 10.0 mi Calm Calm - N/A   Overcast
10:42 AM 10.4 °F 4.0 °F 3.2 °F 73% 29.98 in 9.0 mi ESE 3.5 mph - N/A   Overcast
10:53 AM 10.0 °F 1.8 °F 3.9 °F 76% 30.25 in 4.0 mi SE 4.6 mph - N/A   Haze
11:09 AM 10.4 °F 2.2 °F 3.2 °F 73% 29.98 in 2.0 mi SE 4.6 mph - 0.00 in Snow Light Snow
11:20 AM 8.6 °F 2.0 °F 3.2 °F 79% 29.98 in 5.0 mi SE 3.5 mph - 0.00 in   Haze
11:53 AM 10.0 °F - 3.9 °F 76% 30.23 in 7.0 mi Calm Calm - 0.00 in   Overcast
12:53 PM 10.9 °F - 6.1 °F 81% 30.21 in 10.0 mi Calm Calm - N/A   Overcast
1:53 PM 12.9 °F 5.2 °F 6.1 °F 74% 30.20 in 10.0 mi SW 4.6 mph - N/A   Overcast
2:53 PM 9.0 °F 0.6 °F 3.0 °F 77% 30.23 in 10.0 mi SW 4.6 mph - N/A   Partly Cloudy
3:53 PM 10.9 °F - 3.0 °F 70% 30.23 in 10.0 mi Calm Calm - N/A   Clear
4:53 PM 1.9 °F - -4.0 °F 76% 30.29 in 10.0 mi Calm Calm - N/A   Clear
5:53 PM -2.9 °F -11.2 °F -7.1 °F 82% 30.33 in 10.0 mi ESE 3.5 mph - N/A   Clear
6:53 PM -2.9 °F - -9.0 °F 75% 30.35 in 10.0 mi Calm Calm - N/A   Clear
7:53 PM -6.0 °F - -11.0 °F 79% 30.39 in 10.0 mi Calm Calm - N/A   Overcast
8:04 PM -9.4 °F - -11.2 °F 92% 30.06 in 10.0 mi Calm Calm - N/A   Overcast
8:35 PM -9.4 °F - -13.0 °F 84% 30.07 in 10.0 mi Calm Calm - N/A   Overcast
8:53 PM -9.0 °F - -15.0 °F 75% 30.41 in 10.0 mi Calm Calm - N/A   Overcast
9:53 PM -11.0 °F - -18.0 °F 71% 30.43 in 10.0 mi Calm Calm - N/A   Clear
10:53 PM -9.4 °F - -16.6 °F 71% 30.09 in 10.0 mi Calm Calm - N/A   Clear
11:53 PM -14.1 °F - -20.0 °F 75% 30.47 in 8.0 mi Calm Calm - N/A   Clear